TimePDT,TemperatureF,Dew PointF,Humidity,Sea Level PressureIn,VisibilityMPH,Wind Direction,Wind SpeedMPH,Gust SpeedMPH,PrecipitationIn,Events,Conditions,WindDirDegrees,DateUTC
12:56 AM,70.0,30.9,24,29.81,10.0,Calm,Calm,-,N/A,,Clear,0,2013-03-28 07:56:00
1:56 AM,66.0,34.0,30,29.82,10.0,West,6.9,-,N/A,,Clear,270,2013-03-28 08:56:00
2:56 AM,68.0,34.0,28,29.82,10.0,Calm,Calm,-,N/A,,Clear,0,2013-03-28 09:56:00
3:56 AM,64.0,32.0,30,29.83,10.0,Calm,Calm,-,N/A,,Clear,0,2013-03-28 10:56:00
4:56 AM,64.0,33.1,31,29.84,10.0,Calm,Calm,-,N/A,,Clear,0,2013-03-28 11:56:00
5:56 AM,59.0,34.0,39,29.86,10.0,WNW,3.5,-,N/A,,Clear,290,2013-03-28 12:56:00
6:56 AM,60.1,36.0,41,29.88,10.0,West,4.6,-,N/A,,Clear,280,2013-03-28 13:56:00
7:56 AM,66.9,37.0,33,29.91,10.0,NW,3.5,-,N/A,,Clear,320,2013-03-28 14:56:00
8:56 AM,70.0,36.0,29,29.92,10.0,Variable,3.5,-,N/A,,Clear,0,2013-03-28 15:56:00
9:56 AM,75.0,37.0,25,29.93,10.0,Calm,Calm,-,N/A,,Clear,0,2013-03-28 16:56:00
10:56 AM,78.1,36.0,22,29.92,10.0,Variable,3.5,-,N/A,,Clear,0,2013-03-28 17:56:00
11:56 AM,82.0,33.1,17,29.89,10.0,SW,8.1,-,N/A,,Clear,230,2013-03-28 18:56:00
12:56 PM,82.9,34.0,17,29.90,10.0,SSW,8.1,-,N/A,,Clear,200,2013-03-28 19:56:00
1:56 PM,84.0,34.0,17,29.88,10.0,SW,6.9,18.4,N/A,,Clear,220,2013-03-28 20:56:00
2:56 PM,84.9,30.9,14,29.85,10.0,SSW,9.2,-,N/A,,Clear,210,2013-03-28 21:56:00
3:56 PM,84.0,30.0,14,29.84,10.0,WNW,9.2,16.1,N/A,,Clear,290,2013-03-28 22:56:00
4:56 PM,86.0,30.0,13,29.83,10.0,NW,10.4,19.6,N/A,,Clear,320,2013-03-28 23:56:00
5:56 PM,84.9,30.0,14,29.84,10.0,SW,8.1,-,N/A,,Clear,230,2013-03-29 00:56:00
6:56 PM,82.9,30.9,15,29.85,10.0,SW,9.2,-,N/A,,Clear,220,2013-03-29 01:56:00
7:56 PM,78.1,30.9,18,29.86,10.0,West,6.9,-,N/A,,Clear,260,2013-03-29 02:56:00
8:56 PM,77.0,30.9,19,29.88,10.0,WSW,8.1,-,N/A,,Clear,250,2013-03-29 03:56:00
9:56 PM,75.0,30.9,20,29.89,10.0,WSW,9.2,-,N/A,,Clear,250,2013-03-29 04:56:00
10:56 PM,75.9,33.1,21,29.89,10.0,WSW,10.4,-,N/A,,Clear,250,2013-03-29 05:56:00
11:56 PM,73.0,33.1,23,29.89,10.0,Calm,Calm,-,N/A,,Clear,0,2013-03-29 06:56:00